�N����,����,�~����,�C��,���x,�C��,����,���ϕ���,�ő�u�ԕ���,�ő厞����,���˗�,�I�_���x,�n�����x
"23/09/01","01:00",0.0,23.8,89.3,1009.7,317.4,0.5,1.9,344.0,0.00,22.0,25.7
"23/09/01","02:00",0.0,23.4,89.9,1009.3,315.1,0.6,2.0,310.3,0.00,21.7,25.7
"23/09/01","03:00",0.0,23.4,91.0,1009.3,317.5,1.1,2.0,315.9,0.00,21.9,25.6
"23/09/01","04:00",0.0,23.4,91.2,1009.0,314.1,0.8,1.7,308.8,0.00,21.9,25.3
"23/09/01","05:00",0.0,23.0,91.5,1009.5,293.1,0.5,2.0,337.1,0.00,21.6,25.2
"23/09/01","06:00",0.0,23.8,91.7,1009.0,317.3,0.7,2.5,328.9,0.01,22.4,25.1
"23/09/01","07:00",0.0,27.9,86.1,1008.8,16.4,0.1,1.3,324.4,0.37,25.4,25.2
"23/09/01","08:00",0.0,29.2,73.3,1008.8,348.5,0.6,1.3,341.0,0.76,24.0,25.2
"23/09/01","09:00",0.0,30.5,65.6,1010.2,159.5,1.6,4.2,198.7,1.64,23.4,25.3
"23/09/01","10:00",0.0,32.3,59.0,1010.7,150.6,1.8,4.4,191.2,2.16,23.3,25.7
"23/09/01","11:00",0.0,33.3,52.4,1010.2,176.2,2.3,7.1,213.1,2.84,22.3,26.2
"23/09/01","12:00",0.0,33.4,52.3,1008.8,213.6,2.0,6.6,213.4,2.21,22.3,26.3
"23/09/01","13:00",0.0,34.8,50.6,1009.3,174.7,1.5,6.6,207.0,2.62,23.1,26.9
"23/09/01","14:00",0.0,35.9,42.9,1009.0,296.9,1.0,4.5,208.3,2.90,21.4,27.2
"23/09/01","15:00",0.0,34.0,49.7,1007.8,212.6,1.0,5.0,223.2,1.86,22.0,27.4
"23/09/01","16:00",0.0,34.7,46.9,1007.6,268.7,1.1,3.5,337.7,1.22,21.7,27.6
"23/09/01","17:00",0.0,34.8,49.3,1007.1,25.3,0.5,3.3,350.1,0.78,22.6,27.5
"23/09/01","18:00",0.0,31.0,62.2,1005.7,342.5,0.7,2.4,9.8,0.18,23.0,27.6
"23/09/01","19:00",0.0,29.1,62.2,1005.0,336.5,1.6,3.5,328.6,0.00,21.2,27.5
"23/09/01","20:00",0.0,27.8,65.6,1006.7,352.0,0.8,2.6,344.6,0.00,20.8,26.9
"23/09/01","21:00",0.0,28.0,65.1,1007.8,285.5,1.5,3.4,256.2,0.00,20.9,26.9
"23/09/01","22:00",0.0,26.9,68.8,1007.6,349.1,1.0,3.2,306.7,0.00,20.7,26.7
"23/09/01","23:00",0.0,26.2,74.7,1007.6,347.0,1.0,2.9,351.6,0.00,21.4,26.5
"23/09/01","24:00",0.0,25.0,81.4,1007.6,327.7,1.0,2.7,329.1,0.00,21.6,26.3
"23/09/02","01:00",0.0,23.9,83.9,1007.8,336.0,0.5,2.1,332.2,0.00,21.1,25.9
"23/09/02","02:00",0.0,23.7,87.2,1007.8,303.6,1.0,1.8,305.3,0.00,21.5,25.8
"23/09/02","03:00",0.0,23.9,86.6,1007.1,306.3,0.6,1.7,318.8,0.00,21.6,25.8
"23/09/02","04:00",0.0,23.5,87.9,1007.1,326.1,1.0,1.6,312.2,0.00,21.4,25.6
"23/09/02","05:00",0.0,22.6,89.3,1007.1,323.5,1.1,1.9,320.1,0.00,20.8,25.4
"23/09/02","06:00",0.0,22.8,91.0,1007.8,321.4,1.2,1.9,319.7,0.00,21.3,25.2
"23/09/02","07:00",0.0,25.6,89.7,1007.8,357.4,0.6,1.3,262.3,0.20,23.8,24.9
"23/09/02","08:00",0.0,28.2,77.6,1006.9,112.3,0.2,1.4,353.6,0.73,24.0,25.1
"23/09/02","09:00",0.0,29.8,71.3,1008.1,89.7,0.6,1.9,30.8,1.15,24.1,25.6
"23/09/02","10:00",0.0,30.8,65.3,1008.6,335.0,0.8,1.9,354.2,1.52,23.6,25.5
"23/09/02","11:00",0.0,32.6,57.6,1009.0,146.3,0.6,2.5,14.6,2.34,23.2,26.0
"23/09/02","12:00",0.0,33.1,50.3,1008.6,9.1,1.0,2.5,349.7,2.27,21.4,26.1
"23/09/02","13:00",0.0,32.5,52.8,1007.4,353.8,0.7,2.5,7.6,1.30,21.7,26.6
"23/09/02","14:00",0.0,31.8,56.4,1006.7,326.4,1.0,2.8,350.8,1.07,22.1,26.4
"23/09/02","15:00",0.0,31.9,57.6,1006.2,340.1,1.0,3.1,0.6,0.99,22.5,26.7
"23/09/02","16:00",0.0,31.1,63.4,1005.7,334.8,1.1,3.3,344.7,0.69,23.4,26.6
"23/09/02","17:00",0.0,30.2,65.9,1005.5,345.7,1.2,2.4,334.4,0.40,23.2,26.6
"23/09/02","18:00",0.0,29.0,71.9,1004.8,335.2,0.6,2.2,345.3,0.12,23.5,26.7
"23/09/02","19:00",0.0,27.0,78.4,1005.5,317.3,1.1,2.5,345.5,0.00,23.0,26.6
"23/09/02","20:00",0.0,26.5,80.6,1006.7,339.0,1.3,2.7,342.6,0.00,22.9,26.3
"23/09/02","21:00",0.0,26.0,82.6,1006.9,305.5,1.1,2.9,311.8,0.00,22.8,26.2
"23/09/02","22:00",0.0,25.4,84.0,1006.9,323.6,0.8,2.2,338.7,0.00,22.5,26.2
"23/09/02","23:00",0.0,25.2,85.8,1007.4,328.6,1.6,2.6,340.6,0.00,22.7,25.9
"23/09/02","24:00",0.0,25.6,84.1,1007.1,336.5,1.7,3.4,332.0,0.00,22.8,25.8
"23/09/03","01:00",0.0,24.9,85.7,1006.7,333.1,1.3,3.1,331.4,0.00,22.4,25.6
"23/09/03","02:00",0.0,24.8,84.7,1006.4,317.9,1.5,2.8,321.6,0.00,22.1,25.6
"23/09/03","03:00",0.0,24.3,86.0,1006.4,336.8,1.7,3.4,339.5,0.00,21.8,25.3
"23/09/03","04:00",0.0,23.9,86.1,1006.7,303.1,0.7,3.2,344.1,0.00,21.5,25.3
"23/09/03","05:00",0.0,23.4,88.0,1007.1,329.5,1.2,2.9,347.0,0.00,21.3,25.2
"23/09/03","06:00",0.0,23.6,87.9,1007.6,340.0,1.8,4.1,335.0,0.00,21.5,25.2
"23/09/03","07:00",0.0,25.3,86.2,1007.4,333.7,2.5,4.9,331.3,0.12,22.9,25.0
"23/09/03","08:00",0.0,29.9,71.8,1006.9,80.1,0.5,3.6,334.4,0.86,24.3,25.1
"23/09/03","09:00",0.0,31.2,63.1,1008.6,9.6,0.3,1.9,9.1,1.50,23.4,25.2
"23/09/03","10:00",0.0,33.0,58.9,1009.3,214.5,0.7,2.5,211.9,2.37,23.9,25.2
"23/09/03","11:00",0.0,34.4,53.5,1008.8,170.6,0.8,5.1,52.4,2.74,23.6,25.9
"23/09/03","12:00",0.0,34.8,47.7,1007.4,230.0,1.2,4.8,215.6,3.05,22.1,26.6
"23/09/03","13:00",0.0,36.1,41.4,1007.1,141.8,1.0,4.8,234.0,2.84,21.0,27.1
"23/09/03","14:00",0.0,36.4,40.0,1006.9,10.3,0.8,4.9,127.3,2.64,20.7,27.2
"23/09/03","15:00",0.0,37.5,39.8,1006.9,192.8,0.5,2.5,8.3,2.16,21.6,27.5
"23/09/03","16:00",0.0,36.0,40.1,1005.7,227.6,2.6,5.4,228.0,1.53,20.4,27.7
"23/09/03","17:00",0.0,35.1,44.3,1005.0,106.5,0.8,3.5,220.7,0.73,21.2,27.6
"23/09/03","18:00",0.0,31.6,55.6,1003.6,347.9,1.8,4.1,338.2,0.09,21.7,27.5
"23/09/03","19:00",0.0,29.2,65.0,1002.9,340.8,1.7,5.1,354.3,0.00,22.0,27.4
"23/09/03","20:00",0.0,28.0,68.7,1004.5,316.8,1.0,4.2,331.2,0.00,21.8,27.0
"23/09/03","21:00",0.0,26.5,74.6,1005.0,342.6,1.2,2.7,349.0,0.00,21.7,26.7
"23/09/03","22:00",0.0,25.9,78.8,1005.0,325.2,1.1,3.2,334.6,0.00,22.0,26.5
"23/09/03","23:00",0.0,25.7,79.2,1004.8,343.3,1.3,3.4,339.7,0.00,21.9,26.6
"23/09/03","24:00",0.0,25.7,79.2,1004.3,333.1,2.0,5.2,342.2,0.00,21.9,26.2
"23/09/04","01:00",0.0,25.8,80.8,1005.0,328.3,1.1,3.3,326.8,0.00,22.3,25.9
"23/09/04","02:00",0.0,25.8,82.7,1005.0,317.8,0.5,3.4,339.7,0.00,22.7,25.8
"23/09/04","03:00",0.0,25.6,84.7,1003.8,290.9,1.1,1.9,334.5,0.00,22.9,25.7
"23/09/04","04:00",0.0,25.6,84.6,1003.6,316.8,1.0,3.3,343.2,0.00,22.9,25.7
"23/09/04","05:00",0.0,24.5,87.2,1003.1,341.8,0.5,1.8,327.3,0.00,22.3,25.5
"23/09/04","06:00",0.0,24.1,90.2,1003.4,338.1,1.0,2.1,340.6,0.00,22.4,25.4
"23/09/04","07:00",0.0,25.7,90.0,1003.4,265.5,0.8,2.1,337.4,0.07,24.0,25.4
"23/09/04","08:00",0.0,28.4,79.4,1002.9,339.4,0.7,2.2,234.6,0.41,24.5,25.6
"23/09/04","09:00",0.0,30.5,71.9,1003.4,332.2,1.1,2.9,353.1,0.92,24.9,25.6
"23/09/04","10:00",0.0,31.6,61.9,1004.1,7.1,2.1,5.4,347.0,1.67,23.4,25.8
"23/09/04","11:00",0.0,33.0,57.6,1004.1,7.0,2.1,5.4,36.2,2.18,23.6,26.1
"23/09/04","12:00",0.0,33.9,56.4,1003.8,348.2,2.5,5.4,25.0,2.60,24.0,26.2
"23/09/04","13:00",0.0,33.3,54.8,1002.6,8.0,2.5,6.6,344.4,1.89,23.0,26.9
"23/09/04","14:00",0.0,33.2,56.2,1002.6,357.1,1.7,5.4,25.5,1.54,23.3,26.8
"23/09/04","15:00",0.0,32.8,60.9,1001.7,356.7,1.0,4.3,14.0,0.82,24.3,27.0
"23/09/04","16:00",0.0,32.9,60.1,1001.7,355.2,1.5,3.6,41.5,0.81,24.2,27.0
"23/09/04","17:00",0.0,31.8,62.8,1001.0,349.7,1.6,4.2,328.0,0.61,23.9,26.9
"23/09/04","18:00",0.0,30.3,69.1,1000.5,354.0,1.7,4.4,356.7,0.11,24.0,27.0
"23/09/04","19:00",0.0,29.2,74.6,1000.8,356.1,2.2,5.7,340.0,0.00,24.3,27.0
"23/09/04","20:00",0.0,28.8,75.8,1001.7,335.9,0.8,5.0,355.8,0.00,24.1,26.8
"23/09/04","21:00",0.0,28.5,78.8,1001.9,345.4,1.0,2.2,358.5,0.00,24.5,26.7
"23/09/04","22:00",0.0,27.6,81.7,1002.4,316.6,0.7,2.0,351.1,0.00,24.2,26.5
"23/09/04","23:00",0.0,26.9,86.1,1001.9,312.0,0.6,2.0,319.4,0.00,24.4,26.3
"23/09/04","24:00",0.0,26.5,88.9,1002.2,286.3,0.6,2.0,345.4,0.00,24.6,26.4
"23/09/05","01:00",0.0,26.2,90.2,1002.2,298.1,0.6,2.5,335.1,0.00,24.5,26.3
"23/09/05","02:00",0.0,26.0,91.3,1002.2,287.6,0.8,2.4,335.5,0.00,24.5,26.2
"23/09/05","03:00",0.0,26.2,91.3,1002.2,304.1,0.7,2.6,350.7,0.00,24.7,26.1
"23/09/05","04:00",0.0,26.1,91.4,1001.7,300.2,1.0,1.8,327.7,0.00,24.6,26.0
"23/09/05","05:00",0.0,26.3,91.5,1001.9,142.7,0.8,2.0,295.2,0.00,24.8,26.1
"23/09/05","06:00",0.0,27.1,88.7,1002.2,175.9,0.5,2.0,52.1,0.00,25.1,26.1
"23/09/05","07:00",0.0,27.5,86.8,1002.9,143.5,0.3,1.8,193.0,0.02,25.1,25.7
"23/09/05","08:00",0.0,29.1,80.2,1002.2,40.9,0.3,1.9,43.7,0.36,25.4,26.0
"23/09/05","09:00",0.0,29.8,75.4,1003.8,179.7,1.0,3.1,200.1,0.97,25.0,26.3
"23/09/05","10:00",0.0,33.0,66.2,1005.5,138.9,1.1,2.4,141.2,1.59,25.9,26.4
"23/09/05","11:00",0.0,32.6,60.2,1005.5,191.7,2.5,5.1,221.1,2.26,23.9,26.7
"23/09/05","12:00",0.0,33.5,56.4,1004.1,214.6,2.1,5.6,198.7,2.09,23.7,27.0
"23/09/05","13:00",0.0,34.6,51.3,1004.3,210.3,1.8,5.1,238.7,3.02,23.1,27.2
"23/09/05","14:00",0.0,35.2,51.3,1003.8,208.7,1.7,4.1,215.2,2.28,23.7,27.8
"23/09/05","15:00",0.0,35.1,51.9,1002.2,214.0,1.5,4.2,344.6,1.74,23.8,27.6
"23/09/05","16:00",0.0,35.3,49.5,1002.6,239.8,2.0,4.2,235.7,1.42,23.2,27.9
"23/09/05","17:00",0.0,33.9,53.1,1001.7,232.8,1.6,4.0,226.1,0.58,23.0,27.8
"23/09/05","18:00",0.0,31.9,59.1,1001.2,238.7,1.7,4.1,234.9,0.09,23.0,27.7
"23/09/05","19:00",0.0,29.7,66.8,1000.3,319.1,1.5,4.0,233.7,0.00,22.9,27.4
"23/09/05","20:00",0.0,29.2,64.6,1001.5,285.0,1.1,5.1,306.3,0.00,21.9,27.2
"23/09/05","21:00",0.0,28.0,71.1,1002.2,265.8,1.0,3.6,355.5,0.00,22.3,27.0
"23/09/05","22:00",0.0,26.1,78.7,1002.2,302.4,0.5,1.8,345.5,0.00,22.1,26.7
"23/09/05","23:00",0.0,25.4,82.7,1002.4,306.6,0.8,2.8,314.8,0.00,22.3,26.6
"23/09/05","24:00",0.0,25.4,83.3,1002.4,314.7,1.1,2.2,325.9,0.00,22.4,26.4
"23/09/06","01:00",0.0,25.3,83.5,1002.2,330.2,0.8,1.7,337.0,0.00,22.3,26.3
"23/09/06","02:00",0.0,25.3,84.4,1002.2,340.2,1.1,1.8,331.8,0.00,22.5,26.0
"23/09/06","03:00",0.0,25.4,84.6,1001.7,326.4,0.6,1.4,340.1,0.00,22.7,25.8
"23/09/06","04:00",0.0,24.9,86.3,1001.2,299.7,0.7,1.4,324.2,0.00,22.5,26.0
"23/09/06","05:00",0.0,25.6,83.5,1001.2,336.8,1.2,3.1,346.0,0.00,22.6,25.8
"23/09/06","06:00",0.0,25.2,84.0,1001.7,302.1,1.1,3.1,333.4,0.00,22.3,25.7
"23/09/06","07:00",0.0,25.6,83.9,1002.2,316.6,1.3,3.2,327.5,0.02,22.7,25.6
"23/09/06","08:00",0.0,27.2,80.5,1001.7,304.7,0.7,2.6,343.7,0.34,23.6,25.7
"23/09/06","09:00",0.0,28.2,77.5,1001.0,327.4,1.2,3.4,354.8,0.52,23.9,25.7
"23/09/06","10:00",0.0,29.9,70.6,1001.9,246.4,1.1,4.5,343.3,1.03,24.0,26.0
"23/09/06","11:00",0.0,30.7,66.5,1002.2,314.5,1.1,3.7,318.7,1.45,23.8,26.3
"23/09/06","12:00",0.0,29.8,71.4,1000.8,123.1,1.5,4.4,234.8,0.99,24.1,26.4
"23/09/06","13:00",0.0,28.9,77.5,1000.0,136.9,0.6,2.9,138.1,0.84,24.6,26.7
"23/09/06","14:00",5.6,25.9,88.5,999.8,200.8,1.0,4.0,324.4,0.34,23.9,26.3
"23/09/06","15:00",0.0,26.4,88.7,999.6,201.3,1.0,2.1,231.9,0.84,24.4,26.3
"23/09/06","16:00",0.0,27.2,84.9,999.3,341.0,1.2,2.7,351.2,0.81,24.5,26.2
"23/09/06","17:00",0.0,28.1,79.5,999.6,332.6,1.0,2.4,353.9,0.44,24.3,26.3
"23/09/06","18:00",0.0,26.5,78.5,1000.0,338.7,2.0,4.3,337.5,0.08,22.5,26.3
"23/09/06","19:00",0.0,25.5,79.8,1000.8,344.2,2.5,4.5,336.3,0.00,21.8,26.1
"23/09/06","20:00",0.0,24.4,83.2,1001.7,327.1,2.2,4.8,345.0,0.00,21.4,25.9
"23/09/06","21:00",0.0,24.6,82.4,1001.7,332.3,1.8,4.3,351.1,0.00,21.4,25.9
"23/09/06","22:00",0.0,23.4,85.8,1001.9,167.9,0.1,3.4,335.4,0.00,20.9,25.7
"23/09/06","23:00",0.0,23.4,88.4,1002.2,300.2,0.7,3.3,337.9,0.00,21.4,25.5
"23/09/06","24:00",0.0,22.8,90.8,1002.6,292.8,0.8,2.5,343.0,0.00,21.3,25.3
"23/09/07","01:00",0.0,22.6,91.2,1002.2,303.2,0.5,2.9,355.0,0.00,21.1,25.3
"23/09/07","02:00",0.0,22.2,91.0,1002.4,299.8,0.8,2.1,337.3,0.00,20.7,25.1
"23/09/07","03:00",0.0,21.5,91.0,1002.6,325.2,1.1,2.2,341.3,0.00,20.0,24.9
"23/09/07","04:00",0.0,21.4,92.1,1003.1,286.5,0.7,2.1,325.4,0.00,20.1,24.5
"23/09/07","05:00",0.0,21.1,92.6,1003.4,314.5,0.6,2.0,340.0,0.00,19.9,24.6
"23/09/07","06:00",0.0,21.1,93.2,1003.6,337.1,1.5,2.6,322.9,0.00,20.0,24.6
"23/09/07","07:00",0.0,24.6,90.2,1003.6,111.3,0.3,3.1,339.7,0.16,22.9,24.2
"23/09/07","08:00",0.0,28.7,65.9,1003.4,75.9,1.1,2.7,58.6,0.83,21.7,24.5
"23/09/07","09:00",0.0,29.3,61.5,1003.8,358.5,1.7,4.3,330.3,1.46,21.2,24.5
"23/09/07","10:00",0.0,30.6,59.3,1004.3,2.4,1.7,4.0,33.3,1.76,21.8,24.8
"23/09/07","11:00",0.0,30.1,59.7,1003.6,349.3,2.3,5.2,348.8,1.83,21.4,24.9
"23/09/07","12:00",0.0,29.3,62.4,1002.6,5.6,2.1,7.1,350.2,0.91,21.4,25.3
"23/09/07","13:00",0.0,29.2,65.0,1002.4,341.1,1.7,4.5,346.4,0.60,22.0,25.1
"23/09/07","14:00",0.0,28.2,70.0,1001.7,345.7,1.3,3.6,346.7,0.17,22.2,25.2
"23/09/07","15:00",0.0,28.9,69.3,1001.2,344.8,2.1,5.4,345.7,0.50,22.8,25.2
"23/09/07","16:00",0.0,28.3,70.2,1001.2,348.7,2.8,6.8,342.1,0.48,22.4,25.3
"23/09/07","17:00",0.0,27.5,73.8,1002.4,349.7,2.1,5.8,330.6,0.10,22.4,25.3
"23/09/07","18:00",1.8,26.1,81.1,1002.6,329.6,1.1,5.1,335.5,0.00,22.6,25.3
"23/09/07","19:00",3.2,24.4,89.6,1003.8,328.7,0.5,2.9,345.2,0.00,22.6,25.3
"23/09/07","20:00",0.0,23.9,92.1,1004.3,276.4,1.0,2.2,329.8,0.00,22.6,25.1
"23/09/07","21:00",1.8,23.5,93.2,1004.8,327.0,1.2,2.5,323.9,0.00,22.4,25.0
"23/09/07","22:00",3.0,22.4,93.8,1004.5,320.9,2.0,5.2,309.8,0.00,21.4,24.7
"23/09/07","23:00",1.6,22.6,94.0,1004.5,277.6,0.8,3.4,238.6,0.00,21.6,24.7
"23/09/07","24:00",0.0,22.5,94.5,1004.5,309.2,1.2,2.6,236.9,0.00,21.6,24.6
"23/09/08","01:00",1.2,22.4,94.9,1004.3,335.2,1.6,3.6,346.4,0.00,21.6,24.7
"23/09/08","02:00",0.2,22.4,95.2,1004.1,333.7,1.3,3.5,320.2,0.00,21.6,24.6
"23/09/08","03:00",0.0,22.4,95.2,1002.6,334.0,1.3,4.7,347.4,0.00,21.6,24.5
"23/09/08","04:00",0.0,22.4,95.1,1003.1,342.5,0.5,2.9,322.9,0.00,21.6,24.5
"23/09/08","05:00",0.0,22.1,95.3,1002.9,57.7,0.6,2.0,312.4,0.00,21.4,24.2
"23/09/08","06:00",0.0,22.1,95.5,1002.9,66.2,0.3,2.1,328.2,0.00,21.4,24.2
"23/09/08","07:00",0.0,23.2,95.5,1003.6,242.2,0.1,2.2,342.6,0.08,22.5,24.2
"23/09/08","08:00",0.0,24.2,95.1,1003.6,1.7,0.3,1.1,260.4,0.36,23.4,24.3
"23/09/08","09:00",0.0,24.5,93.2,1002.9,323.4,2.2,4.0,322.8,0.62,23.4,24.4
"23/09/08","10:00",0.0,27.9,78.4,1002.2,328.8,1.8,4.7,343.4,1.25,23.8,24.5
"23/09/08","11:00",0.0,29.2,71.0,1001.9,23.4,1.5,4.4,328.0,1.18,23.4,24.7
"23/09/08","12:00",0.2,30.5,67.4,1002.2,296.9,1.1,4.2,350.1,1.41,23.8,25.0
"23/09/08","13:00",0.0,30.2,65.7,1001.7,335.2,2.2,5.1,345.8,2.12,23.1,25.1
"23/09/08","14:00",0.0,29.8,66.9,1000.0,343.7,2.5,6.2,345.3,1.12,23.0,25.0
"23/09/08","15:00",0.0,28.6,69.8,1000.3,353.5,2.1,6.3,354.1,1.57,22.6,25.4
"23/09/08","16:00",0.0,27.7,71.1,1000.3,359.0,1.7,6.0,356.2,0.45,22.0,25.4
"23/09/08","17:00",0.0,27.3,72.4,1000.8,14.0,1.3,4.1,359.4,0.39,21.9,25.4
"23/09/08","18:00",0.0,26.2,76.5,1001.5,332.4,1.2,3.1,11.2,0.07,21.8,25.3
"23/09/08","19:00",0.0,24.9,82.5,1001.7,340.5,1.5,2.9,341.0,0.00,21.8,25.2
"23/09/08","20:00",0.0,24.8,81.8,1002.6,322.6,2.2,5.7,335.1,0.00,21.5,25.2
"23/09/08","21:00",0.0,23.6,84.2,1003.1,348.7,0.6,4.1,314.3,0.00,20.8,25.2
"23/09/08","22:00",0.0,22.9,88.5,1003.8,331.1,1.0,2.1,340.5,0.00,20.9,25.1
"23/09/08","23:00",0.0,22.5,90.8,1003.4,327.5,1.2,2.4,334.5,0.00,21.0,24.7
"23/09/08","24:00",0.0,22.5,91.1,1003.4,335.6,1.2,2.7,326.2,0.00,21.0,24.6
"23/09/09","01:00",0.0,22.0,91.6,1003.6,328.7,1.2,3.4,327.7,0.00,20.6,24.5
"23/09/09","02:00",0.0,22.0,92.3,1003.1,327.6,1.2,2.7,330.3,0.00,20.7,24.2
"23/09/09","03:00",0.0,21.7,93.1,1002.9,339.1,1.3,2.1,335.7,0.00,20.6,24.5
"23/09/09","04:00",0.0,21.1,93.7,1003.4,324.0,1.3,2.7,325.5,0.00,20.1,24.0
"23/09/09","05:00",0.0,20.9,94.3,1003.6,324.1,1.0,2.1,315.9,0.00,20.0,24.1
"23/09/09","06:00",0.0,21.0,94.9,1004.1,324.5,1.3,2.4,316.4,0.00,20.2,23.9
"23/09/09","07:00",0.0,23.5,94.7,1004.1,21.8,0.6,3.2,339.1,0.10,22.6,23.7
"23/09/09","08:00",0.0,25.9,87.3,1003.6,117.2,0.7,2.0,348.5,0.75,23.7,23.9
"23/09/09","09:00",0.0,28.6,72.9,1004.5,35.4,1.0,2.4,11.7,1.28,23.3,23.9
"23/09/09","10:00",0.0,29.3,69.8,1005.2,158.6,1.0,3.3,186.9,1.82,23.3,24.4
"23/09/09","11:00",0.0,30.6,62.3,1005.7,149.3,1.1,4.9,213.0,2.48,22.6,24.5
"23/09/09","12:00",0.0,31.1,64.1,1004.5,162.6,1.3,3.3,211.3,1.52,23.6,24.8
"23/09/09","13:00",0.0,31.0,60.8,1004.8,242.0,1.8,4.2,206.6,1.96,22.6,25.2
"23/09/09","14:00",0.0,31.7,61.6,1004.1,214.1,0.5,2.8,239.4,1.81,23.5,25.4
"23/09/09","15:00",0.0,32.3,56.5,1004.1,188.4,2.1,4.2,212.0,1.93,22.6,25.8
"23/09/09","16:00",0.0,32.5,54.8,1003.8,271.1,0.7,3.5,212.6,1.34,22.3,25.7
"23/09/09","17:00",0.0,30.6,56.1,1002.4,226.5,1.2,2.7,192.8,0.47,20.9,26.0
"23/09/09","18:00",0.0,27.4,70.4,1001.9,324.9,1.1,2.8,335.1,0.00,21.6,25.9
"23/09/09","19:00",0.0,25.9,77.1,1003.1,317.4,1.0,2.8,345.2,0.00,21.6,25.5
"23/09/09","20:00",0.0,24.8,81.5,1004.1,307.4,0.7,1.9,258.8,0.00,21.5,25.6
"23/09/09","21:00",0.0,24.0,84.2,1004.5,325.3,0.8,1.9,321.7,0.00,21.2,25.2
"23/09/09","22:00",0.0,23.9,84.6,1004.8,318.4,1.1,2.0,333.5,0.00,21.2,25.1
"23/09/09","23:00",0.0,23.4,85.2,1005.0,338.8,1.3,3.2,339.3,0.00,20.8,24.9
"23/09/09","24:00",0.0,23.2,85.9,1005.5,319.0,1.5,3.1,333.1,0.00,20.7,24.8
"23/09/10","01:00",0.0,23.1,84.6,1005.0,337.1,2.0,3.3,329.9,0.00,20.4,24.8
"23/09/10","02:00",0.0,22.8,86.0,1005.0,316.2,1.5,3.3,329.7,0.00,20.4,24.5
"23/09/10","03:00",0.0,22.5,86.2,1005.2,323.1,1.5,3.5,310.9,0.00,20.1,24.4
"23/09/10","04:00",0.0,22.8,86.4,1005.5,322.1,2.1,3.4,330.7,0.00,20.5,24.3
"23/09/10","05:00",0.0,21.8,87.3,1005.2,318.7,1.1,2.5,331.3,0.00,19.6,24.2
"23/09/10","06:00",0.0,21.8,89.0,1006.4,286.0,1.0,2.5,323.8,0.00,19.9,24.1
"23/09/10","07:00",0.0,24.6,85.7,1006.0,300.8,0.7,2.5,343.0,0.18,22.1,24.1
"23/09/10","08:00",0.0,28.0,74.8,1005.0,315.5,0.6,2.0,251.5,0.70,23.1,24.3
"23/09/10","09:00",0.0,30.7,66.2,1006.7,113.4,1.0,2.7,77.6,1.55,23.7,24.3
"23/09/10","10:00",0.0,31.7,63.7,1007.1,132.1,1.2,3.5,72.1,2.13,24.0,24.7
"23/09/10","11:00",0.0,32.6,60.6,1006.9,56.1,1.2,4.3,210.5,2.72,24.0,25.0
"23/09/10","12:00",0.0,32.1,60.1,1006.0,28.4,0.7,2.7,181.4,1.96,23.4,25.7
"23/09/10","13:00",0.0,31.1,62.6,1004.1,121.1,1.1,3.1,129.3,0.60,23.2,25.8
"23/09/10","14:00",0.0,32.7,62.8,1004.8,95.0,1.2,3.9,99.0,1.63,24.7,25.7
"23/09/10","15:00",0.0,32.5,60.5,1004.5,149.3,1.6,3.9,158.8,1.72,23.9,26.0
"23/09/10","16:00",0.0,30.4,62.7,1003.8,128.9,1.2,3.2,80.0,1.13,22.5,25.9
"23/09/10","17:00",0.0,29.1,69.8,1002.4,356.5,0.6,2.6,127.0,0.06,23.1,25.8
"23/09/10","18:00",0.0,28.5,74.6,1002.9,355.8,0.6,2.1,30.9,0.01,23.6,26.2
"23/09/10","19:00",0.0,26.2,84.4,1004.5,320.0,0.7,3.3,122.2,0.00,23.4,25.9
"23/09/10","20:00",0.0,25.4,86.9,1006.0,323.6,1.2,3.3,234.3,0.00,23.1,25.8
"23/09/10","21:00",1.4,24.8,89.5,1005.2,237.3,1.0,2.1,340.9,0.00,23.0,25.5
"23/09/10","22:00",0.6,24.3,91.8,1006.0,302.5,0.5,1.7,203.5,0.00,22.9,25.4
"23/09/10","23:00",0.0,24.2,93.0,1006.2,348.3,0.8,1.7,351.2,0.00,23.0,25.4
"23/09/10","24:00",0.2,24.1,93.8,1005.5,299.2,0.3,1.4,344.0,0.00,23.1,25.2
"23/09/11","01:00",0.0,23.7,94.4,1004.8,227.8,0.5,1.2,343.9,0.00,22.8,25.4
"23/09/11","02:00",0.0,23.5,95.0,1005.0,294.8,0.3,1.3,343.6,0.00,22.7,25.1
"23/09/11","03:00",0.0,23.8,95.2,1004.8,317.4,0.5,1.4,348.6,0.00,23.0,25.0
"23/09/11","04:00",0.0,23.7,95.5,1004.8,310.8,0.7,1.4,310.1,0.00,23.0,25.1
"23/09/11","05:00",0.0,23.4,95.8,1004.8,316.0,0.6,1.4,334.8,0.00,22.7,24.7
"23/09/11","06:00",0.0,23.1,96.1,1004.5,335.1,0.6,1.3,343.6,0.00,22.5,24.8
"23/09/11","07:00",0.0,23.6,96.2,1005.2,287.2,0.8,1.6,332.9,0.02,23.0,24.9
"23/09/11","08:00",0.0,26.3,93.7,1005.2,14.7,0.7,1.8,347.2,1.05,25.2,24.8
"23/09/11","09:00",0.0,30.3,72.6,1005.5,104.1,0.7,2.1,100.5,1.23,24.9,24.9
"23/09/11","10:00",0.0,30.7,67.3,1005.5,163.3,1.1,5.5,219.8,1.22,24.0,25.0
"23/09/11","11:00",0.0,29.0,67.7,1004.1,210.6,2.2,4.8,224.2,1.01,22.5,25.2
"23/09/11","12:00",1.8,26.6,82.9,1004.5,210.7,1.3,5.4,219.3,0.81,23.5,25.2
"23/09/11","13:00",0.0,28.9,76.1,1004.5,172.9,1.7,4.1,202.4,2.35,24.3,25.3
"23/09/11","14:00",0.4,26.4,83.7,1004.3,79.8,0.7,4.5,211.1,0.45,23.5,25.7
"23/09/11","15:00",3.8,24.9,89.1,1004.8,30.6,0.5,2.0,126.2,0.11,23.0,25.4
"23/09/11","16:00",0.8,25.0,91.3,1004.8,326.9,0.5,2.0,359.1,0.37,23.5,25.5
"23/09/11","17:00",0.0,25.5,90.5,1004.8,308.6,0.7,1.9,340.9,0.49,23.9,25.4
"23/09/11","18:00",0.0,24.7,90.6,1004.8,320.9,1.0,2.0,348.5,0.12,23.1,25.3
"23/09/11","19:00",0.0,24.2,91.9,1006.0,315.2,0.8,1.6,325.4,0.00,22.8,25.3
"23/09/11","20:00",0.0,23.7,93.0,1006.4,308.0,1.0,1.9,343.6,0.00,22.5,25.2
"23/09/11","21:00",0.0,23.7,93.6,1006.2,311.9,0.8,2.0,335.5,0.00,22.6,25.0
"23/09/11","22:00",0.0,23.2,94.2,1006.4,314.3,0.8,2.0,325.4,0.00,22.3,25.1
"23/09/11","23:00",0.0,23.1,94.7,1006.2,330.5,1.0,2.4,327.3,0.00,22.2,24.8
"23/09/11","24:00",0.0,22.8,95.1,1006.7,303.2,0.6,1.4,352.1,0.00,22.0,24.7
"23/09/12","01:00",0.0,22.4,95.4,1006.4,293.6,0.7,1.8,318.2,0.00,21.7,24.6
"23/09/12","02:00",0.0,22.3,95.8,1006.4,288.1,0.7,2.5,326.9,0.00,21.6,24.5
"23/09/12","03:00",0.0,22.1,96.1,1006.2,310.0,1.1,1.9,341.2,0.00,21.5,24.6
"23/09/12","04:00",0.0,21.9,96.4,1006.4,327.6,1.1,1.8,328.9,0.00,21.3,24.3
"23/09/12","05:00",0.0,21.9,96.5,1006.4,317.1,1.1,1.7,340.7,0.00,21.4,24.2
"23/09/12","06:00",0.0,22.0,96.7,1007.1,333.3,0.7,1.4,327.6,0.00,21.5,24.2
"23/09/12","07:00",0.0,24.2,96.3,1006.7,145.1,0.2,1.4,347.4,0.18,23.6,23.9
"23/09/12","08:00",0.0,26.6,94.1,1005.5,71.8,0.3,1.4,356.1,0.71,25.6,24.1
"23/09/12","09:00",0.0,28.0,84.0,1006.9,47.2,0.7,2.5,103.3,0.79,25.1,24.4
"23/09/12","10:00",0.0,27.8,78.0,1005.7,128.4,0.8,2.9,104.0,0.70,23.7,24.6
"23/09/12","11:00",0.0,29.9,71.7,1006.7,125.1,0.8,2.8,204.7,1.30,24.3,24.7
"23/09/12","12:00",0.0,29.5,72.3,1005.5,149.4,1.2,5.5,123.2,1.24,24.0,24.8
"23/09/12","13:00",0.0,33.2,62.5,1007.4,87.9,0.8,4.2,204.8,2.57,25.1,25.0
"23/09/12","14:00",0.0,33.0,60.3,1006.4,86.4,1.0,2.6,348.3,2.29,24.3,25.6
"23/09/12","15:00",4.2,27.9,79.0,1003.1,12.3,0.8,2.9,130.8,0.26,24.0,25.7
"23/09/12","16:00",1.8,26.1,87.8,1005.0,320.5,0.6,3.7,216.0,0.46,24.0,25.6
"23/09/12","17:00",0.0,26.2,88.6,1005.0,310.5,1.0,2.4,344.3,0.49,24.2,25.6
"23/09/12","18:00",0.0,25.5,90.2,1005.2,307.5,0.7,2.6,346.7,0.04,23.8,25.7
"23/09/12","19:00",0.0,24.9,91.8,1005.7,315.8,1.0,2.4,339.1,0.00,23.5,25.3
"23/09/12","20:00",0.0,24.5,92.7,1006.9,322.8,1.0,1.6,333.9,0.00,23.3,25.4
"23/09/12","21:00",0.0,23.9,93.4,1007.4,311.0,0.8,1.6,341.1,0.00,22.8,25.2
"23/09/12","22:00",0.0,23.3,94.2,1006.9,326.1,1.0,1.7,339.7,0.00,22.4,25.2
"23/09/12","23:00",0.0,23.1,94.7,1007.4,311.7,0.8,1.7,318.2,0.00,22.2,24.8
"23/09/12","24:00",0.0,22.9,95.1,1007.1,301.2,0.5,1.7,316.5,0.00,22.1,24.8
"23/09/13","01:00",0.0,22.7,95.4,1007.4,318.1,0.8,1.4,321.1,0.00,22.0,24.7
"23/09/13","02:00",0.0,22.1,95.8,1007.6,291.6,0.8,1.3,310.7,0.00,21.4,24.6
"23/09/13","03:00",0.0,22.0,96.2,1007.4,273.6,0.7,2.4,330.6,0.00,21.4,24.5
"23/09/13","04:00",0.0,21.6,96.5,1007.6,316.8,1.0,1.6,320.9,0.00,21.1,24.1
"23/09/13","05:00",0.0,21.3,96.6,1007.6,309.2,1.0,1.4,320.2,0.00,20.8,24.3
"23/09/13","06:00",0.0,21.7,96.8,1007.8,301.4,0.7,2.1,319.3,0.00,21.2,24.0
"23/09/13","07:00",0.0,24.6,96.3,1007.8,349.9,0.7,1.7,348.0,0.34,24.0,24.3
"23/09/13","08:00",0.0,25.9,93.1,1006.9,59.6,0.5,1.7,340.3,0.85,24.7,24.1
"23/09/13","09:00",0.0,29.3,73.8,1008.3,119.1,0.7,2.1,42.0,1.41,24.2,24.3
"23/09/13","10:00",0.0,29.3,68.5,1008.6,143.9,1.0,2.5,231.5,1.89,22.9,24.6
"23/09/13","11:00",0.0,31.3,64.1,1008.8,200.2,1.3,4.9,206.3,2.61,23.7,24.7
"23/09/13","12:00",0.2,33.0,59.2,1008.6,160.9,1.2,4.4,194.4,2.92,24.0,25.2
"23/09/13","13:00",0.0,31.4,62.5,1007.1,131.6,1.0,3.5,37.2,1.57,23.4,25.6
"23/09/13","14:00",0.0,31.5,61.4,1006.0,136.8,0.8,3.2,153.9,1.07,23.2,25.8
"23/09/13","15:00",0.0,32.2,58.1,1006.0,50.0,0.7,2.7,4.6,1.01,23.0,25.8
"23/09/13","16:00",0.0,32.8,57.8,1005.7,232.8,0.7,2.0,355.5,1.13,23.4,26.1
"23/09/13","17:00",0.0,32.8,55.9,1005.7,84.0,0.7,3.4,26.3,0.71,22.9,26.5
"23/09/13","18:00",0.0,30.1,63.9,1004.5,30.4,0.3,2.7,59.0,0.02,22.6,26.3
"23/09/13","19:00",0.0,28.6,71.2,1004.5,184.8,0.6,2.5,209.3,0.00,22.9,26.2
"23/09/13","20:00",0.0,26.5,80.8,1006.0,322.9,0.6,1.4,328.7,0.00,23.0,26.2
"23/09/13","21:00",0.0,25.3,85.7,1006.4,286.1,0.5,1.3,341.9,0.00,22.8,25.8
"23/09/13","22:00",0.0,25.8,85.5,1007.4,332.9,1.0,2.0,329.0,0.00,23.2,25.7
"23/09/13","23:00",0.0,25.9,84.7,1007.4,347.0,0.7,1.4,339.0,0.00,23.2,25.7
"23/09/13","24:00",0.0,25.1,85.3,1006.9,332.2,0.7,1.6,353.2,0.00,22.5,25.4
"23/09/14","01:00",0.0,24.7,86.7,1006.9,333.2,0.7,1.9,336.0,0.00,22.4,25.5
"23/09/14","02:00",0.0,23.8,88.7,1006.7,325.0,0.8,1.6,337.0,0.00,21.9,25.3
"23/09/14","03:00",0.0,23.3,90.1,1006.2,328.5,1.0,2.0,336.2,0.00,21.6,25.2